Time,TemperatureF,DewpointF,PressureIn,WindDirection,WindDirectionDegrees,WindSpeedMPH,WindSpeedGustMPH,Humidity,HourlyPrecipIn,Conditions,Clouds,dailyrainin,SoftwareType,DateUTC
2013-03-09 00:00:00,63.9,59.0,30.05,SE,127,0.0,6.0,84,0.00,,OVC040,0.05,VWS V14.01,2013-03-09 06:00:00,
2013-03-09 00:05:00,63.9,59.0,30.04,ESE,120,0.0,0.0,84,0.00,,OVC040,0.00,VWS V14.01,2013-03-09 06:05:00,
2013-03-09 00:10:00,63.9,59.3,30.04,SE,139,2.0,11.0,85,0.00,,OVC040,0.00,VWS V14.01,2013-03-09 06:10:00,
2013-03-09 00:15:00,63.9,59.3,30.04,SE,130,3.0,5.0,85,0.00,,OVC040,0.00,VWS V14.01,2013-03-09 06:15:00,
2013-03-09 00:20:00,63.9,59.3,30.04,SE,126,6.0,9.0,85,0.00,,OVC038,0.00,VWS V14.01,2013-03-09 06:20:00,
2013-03-09 00:25:00,63.9,59.3,30.04,SE,136,2.0,9.0,85,0.00,,OVC038,0.00,VWS V14.01,2013-03-09 06:25:00,
2013-03-09 00:30:00,63.9,59.3,30.04,ESE,121,1.0,15.0,85,0.00,,OVC038,0.00,VWS V14.01,2013-03-09 06:30:00,
2013-03-09 00:35:00,63.9,59.3,30.03,ESE,106,0.0,5.0,85,0.00,,OVC038,0.00,VWS V14.01,2013-03-09 06:35:00,
2013-03-09 00:40:00,63.9,59.3,30.03,ESE,115,0.0,9.0,85,0.00,,OVC038,0.00,VWS V14.01,2013-03-09 06:40:00,
2013-03-09 00:45:00,63.9,59.3,30.03,ESE,121,0.0,6.0,85,0.00,,OVC038,0.00,VWS V14.01,2013-03-09 06:45:00,
2013-03-09 00:50:00,63.7,59.1,30.02,SSE,165,3.0,10.0,85,0.00,,OVC038,0.00,VWS V14.01,2013-03-09 06:50:00,
2013-03-09 00:55:00,63.7,59.1,30.02,ESE,121,0.0,6.0,85,0.00,,OVC038,0.00,VWS V14.01,2013-03-09 06:55:00,
2013-03-09 01:00:00,63.7,59.1,30.02,SE,141,0.0,7.0,85,0.00,,OVC020,0.00,VWS V14.01,2013-03-09 07:00:00,
2013-03-09 01:05:00,63.7,59.4,30.02,SE,133,0.0,3.0,86,0.00,,OVC020,0.00,VWS V14.01,2013-03-09 07:05:00,
2013-03-09 01:10:00,63.7,59.4,30.02,ESE,121,0.0,9.0,86,0.00,,OVC020,0.00,VWS V14.01,2013-03-09 07:10:00,
2013-03-09 01:15:00,63.7,59.4,30.02,ESE,112,3.0,10.0,86,0.00,,OVC020,0.00,VWS V14.01,2013-03-09 07:15:00,
2013-03-09 01:20:00,63.7,59.4,30.00,ESE,115,0.0,10.0,86,0.00,,OVC020,0.00,VWS V14.01,2013-03-09 07:20:00,
2013-03-09 01:25:00,63.7,59.4,30.00,SE,138,0.0,3.0,86,0.00,,OVC020,0.00,VWS V14.01,2013-03-09 07:25:00,
2013-03-09 01:30:00,63.5,59.2,30.00,SE,132,0.0,4.0,86,0.00,,OVC020,0.00,VWS V14.01,2013-03-09 07:30:00,
2013-03-09 01:35:00,63.5,59.2,30.00,SE,134,4.0,5.0,86,0.00,,OVC013,0.00,VWS V14.01,2013-03-09 07:35:00,
2013-03-09 01:40:00,63.5,59.2,30.00,ESE,121,1.0,7.0,86,0.00,,OVC013,0.00,VWS V14.01,2013-03-09 07:40:00,
2013-03-09 01:45:00,63.5,59.2,30.00,ESE,121,0.0,0.0,86,0.00,,OVC013,0.00,VWS V14.01,2013-03-09 07:45:00,
2013-03-09 01:50:00,63.5,59.2,30.00,ESE,121,0.0,6.0,86,0.00,,OVC013,0.00,VWS V14.01,2013-03-09 07:50:00,
2013-03-09 01:55:00,63.5,59.6,30.00,ESE,112,0.0,4.0,87,0.00,,OVC013,0.00,VWS V14.01,2013-03-09 07:55:00,
2013-03-09 02:00:00,63.5,59.6,30.00,SE,126,0.0,6.0,87,0.00,,OVC013,0.00,VWS V14.01,2013-03-09 08:00:00,
2013-03-09 02:05:00,63.5,59.6,29.98,ESE,115,6.0,6.0,87,0.00,,OVC013,0.00,VWS V14.01,2013-03-09 08:05:00,
2013-03-09 02:10:00,63.5,59.6,29.98,SE,131,0.0,7.0,87,0.00,,OVC013,0.00,VWS V14.01,2013-03-09 08:10:00,
2013-03-09 02:15:00,63.5,59.6,29.98,ENE,77,1.0,6.0,87,0.00,,OVC013,0.00,VWS V14.01,2013-03-09 08:15:00,
2013-03-09 02:20:00,63.5,59.6,29.97,ESE,111,0.0,6.0,87,0.00,,OVC013,0.00,VWS V14.01,2013-03-09 08:20:00,
2013-03-09 02:25:00,63.5,59.6,29.97,ESE,121,0.0,7.0,87,0.00,,OVC013,0.00,VWS V14.01,2013-03-09 08:25:00,
2013-03-09 02:30:00,63.5,59.6,29.97,SE,131,3.0,7.0,87,0.00,,OVC013,0.00,VWS V14.01,2013-03-09 08:30:00,
2013-03-09 02:35:00,63.5,59.6,29.97,ESE,115,0.0,6.0,87,0.00,,OVC013,0.00,VWS V14.01,2013-03-09 08:35:00,
2013-03-09 02:40:00,63.5,59.6,29.97,SE,141,3.0,7.0,87,0.00,,OVC013,0.00,VWS V14.01,2013-03-09 08:40:00,
2013-03-09 02:45:00,63.5,59.6,29.97,ESE,116,0.0,0.0,87,0.00,,OVC013,0.00,VWS V14.01,2013-03-09 08:45:00,
2013-03-09 02:50:00,63.5,59.6,29.96,SE,128,0.0,5.0,87,0.00,,OVC013,0.00,VWS V14.01,2013-03-09 08:50:00,
2013-03-09 02:55:00,63.5,59.9,29.96,SE,130,4.0,10.0,88,0.00,,OVC013,0.00,VWS V14.01,2013-03-09 08:55:00,
2013-03-09 03:00:00,63.5,59.9,29.96,SSE,152,0.0,10.0,88,0.00,,OVC011,0.00,VWS V14.01,2013-03-09 09:00:00,
2013-03-09 03:05:00,63.5,59.9,29.95,ESE,117,0.0,4.0,88,0.00,,OVC011,0.00,VWS V14.01,2013-03-09 09:05:00,
2013-03-09 03:10:00,63.5,59.9,29.95,SE,126,0.0,5.0,88,0.00,,OVC011,0.00,VWS V14.01,2013-03-09 09:10:00,
2013-03-09 03:15:00,63.5,59.9,29.95,SSE,163,5.0,5.0,88,0.00,,OVC011,0.00,VWS V14.01,2013-03-09 09:15:00,
2013-03-09 03:20:00,63.5,59.9,29.95,SE,130,0.0,5.0,88,0.00,,OVC011,0.00,VWS V14.01,2013-03-09 09:20:00,
2013-03-09 03:25:00,63.7,60.1,29.95,ESE,113,0.0,0.0,88,0.00,,OVC011,0.00,VWS V14.01,2013-03-09 09:25:00,
2013-03-09 03:30:00,63.7,60.1,29.95,ESE,115,0.0,7.0,88,0.00,,OVC011,0.00,VWS V14.01,2013-03-09 09:30:00,
2013-03-09 03:35:00,63.7,60.1,29.94,East,101,0.0,6.0,88,0.00,,OVC009,0.00,VWS V14.01,2013-03-09 09:35:00,
2013-03-09 03:40:00,63.7,60.1,29.94,ESE,114,0.0,6.0,88,0.00,,OVC009,0.00,VWS V14.01,2013-03-09 09:40:00,
2013-03-09 03:45:00,63.9,60.6,29.94,SSE,149,2.0,5.0,89,0.00,,OVC009,0.00,VWS V14.01,2013-03-09 09:45:00,
2013-03-09 03:50:00,63.9,60.6,29.94,ESE,118,0.0,5.0,89,0.00,,OVC009,0.00,VWS V14.01,2013-03-09 09:50:00,
2013-03-09 03:55:00,63.9,60.6,29.94,ESE,123,0.0,0.0,89,0.00,,OVC009,0.00,VWS V14.01,2013-03-09 09:55:00,
2013-03-09 04:00:00,63.9,60.6,29.94,ESE,108,0.0,0.0,89,0.00,,OVC016,0.00,VWS V14.01,2013-03-09 10:00:00,
2013-03-09 04:05:00,63.9,60.6,29.93,ESE,112,0.0,0.0,89,0.00,,OVC016,0.00,VWS V14.01,2013-03-09 10:05:00,
2013-03-09 04:10:00,63.9,60.6,29.93,SE,124,0.0,4.0,89,0.00,,OVC016,0.00,VWS V14.01,2013-03-09 10:10:00,
2013-03-09 04:15:00,63.9,60.9,29.93,ESE,122,1.0,5.0,90,0.00,,OVC016,0.00,VWS V14.01,2013-03-09 10:15:00,
2013-03-09 04:20:00,63.9,60.9,29.92,SE,126,0.0,6.0,90,0.00,,OVC016,0.00,VWS V14.01,2013-03-09 10:20:00,
2013-03-09 04:25:00,63.9,60.9,29.92,SE,126,0.0,8.0,90,0.00,,OVC016,0.00,VWS V14.01,2013-03-09 10:25:00,
2013-03-09 04:30:00,63.9,60.9,29.92,SE,144,5.0,8.0,90,0.00,,OVC016,0.00,VWS V14.01,2013-03-09 10:30:00,
2013-03-09 04:35:00,64.0,61.0,29.92,ESE,118,0.0,3.0,90,0.00,,OVC016,0.00,VWS V14.01,2013-03-09 10:35:00,
2013-03-09 04:40:00,64.0,61.0,29.92,SE,133,0.0,7.0,90,0.00,,OVC016,0.00,VWS V14.01,2013-03-09 10:40:00,
2013-03-09 04:45:00,64.0,61.0,29.92,SE,133,0.0,0.0,90,0.00,,OVC016,0.00,VWS V14.01,2013-03-09 10:45:00,
2013-03-09 04:50:00,64.0,61.0,29.92,ESE,118,0.0,0.0,90,0.00,,OVC016,0.00,VWS V14.01,2013-03-09 10:50:00,
2013-03-09 04:55:00,64.0,61.0,29.92,ESE,118,0.0,0.0,90,0.00,,OVC016,0.00,VWS V14.01,2013-03-09 10:55:00,
2013-03-09 05:00:00,64.2,61.2,29.92,ESE,107,0.0,0.0,90,0.00,,OVC014,0.00,VWS V14.01,2013-03-09 11:00:00,
2013-03-09 05:05:00,64.2,61.2,29.93,ESE,107,0.0,0.0,90,0.00,,OVC014,0.00,VWS V14.01,2013-03-09 11:05:00,
2013-03-09 05:10:00,64.2,61.2,29.93,ESE,107,0.0,0.0,90,0.00,,OVC014,0.00,VWS V14.01,2013-03-09 11:10:00,
2013-03-09 05:15:00,64.3,61.3,29.93,SE,128,0.0,6.0,90,0.00,,OVC014,0.00,VWS V14.01,2013-03-09 11:15:00,
2013-03-09 05:20:00,64.3,61.3,29.92,ESE,118,0.0,6.0,90,0.00,,OVC014,0.00,VWS V14.01,2013-03-09 11:20:00,
2013-03-09 05:25:00,64.5,61.5,29.92,SE,127,5.0,5.0,90,0.00,,OVC014,0.00,VWS V14.01,2013-03-09 11:25:00,
2013-03-09 05:30:00,64.5,61.8,29.92,SE,133,5.0,5.0,91,0.00,,OVC014,0.00,VWS V14.01,2013-03-09 11:30:00,
2013-03-09 05:35:00,64.7,62.0,29.92,SE,137,0.0,7.0,91,0.00,,OVC014,0.00,VWS V14.01,2013-03-09 11:35:00,
2013-03-09 05:40:00,64.7,62.0,29.92,SE,137,0.0,7.0,91,0.00,,OVC014,0.00,VWS V14.01,2013-03-09 11:40:00,
2013-03-09 05:45:00,64.8,62.4,29.92,SE,134,0.0,1.0,92,0.00,,-RA,0.00,VWS V14.01,2013-03-09 11:45:00,
2013-03-09 05:50:00,64.8,62.4,29.92,SE,133,2.0,4.0,92,0.00,,-RA,0.00,VWS V14.01,2013-03-09 11:50:00,
2013-03-09 05:55:00,64.8,62.4,29.92,ESE,122,0.0,0.0,92,0.00,,-RA,0.00,VWS V14.01,2013-03-09 11:55:00,
2013-03-09 06:00:00,64.8,62.4,29.92,ESE,123,0.0,6.0,92,0.00,,-RA,0.00,VWS V14.01,2013-03-09 12:00:00,
2013-03-09 06:05:00,65.0,62.6,29.92,SE,134,2.0,9.0,92,0.00,,-RA,0.00,VWS V14.01,2013-03-09 12:05:00,
2013-03-09 06:10:00,65.0,62.6,29.92,SE,144,0.0,9.0,92,0.00,,-RA,0.00,VWS V14.01,2013-03-09 12:10:00,
2013-03-09 06:15:00,65.0,62.6,29.92,SSE,159,0.0,0.0,92,0.00,,-RA,0.00,VWS V14.01,2013-03-09 12:15:00,
2013-03-09 06:20:00,65.2,62.5,29.92,ESE,114,1.0,4.0,91,0.00,,-RA,0.00,VWS V14.01,2013-03-09 12:20:00,
2013-03-09 06:25:00,65.2,62.5,29.92,SSE,153,0.0,3.0,91,0.00,,-RA,0.00,VWS V14.01,2013-03-09 12:25:00,
2013-03-09 06:30:00,65.3,62.6,29.92,SE,125,0.0,6.0,91,0.00,,-RA,0.00,VWS V14.01,2013-03-09 12:30:00,
2013-03-09 06:35:00,65.5,62.5,29.93,South,186,0.0,10.0,90,0.00,,-RA,0.00,VWS V14.01,2013-03-09 12:35:00,
2013-03-09 06:40:00,65.5,62.5,29.93,SSE,162,0.0,10.0,90,0.00,,-RA,0.00,VWS V14.01,2013-03-09 12:40:00,
2013-03-09 06:45:00,65.6,62.6,29.93,South,172,0.0,9.0,90,0.00,,-RA,0.00,VWS V14.01,2013-03-09 12:45:00,
2013-03-09 06:49:00,65.6,62.3,29.93,SSE,151,0.0,9.0,89,0.00,,-RA,0.00,VWS V14.01,2013-03-09 12:49:00,
2013-03-09 06:54:00,65.8,62.5,29.93,SE,145,3.0,6.0,89,0.00,,-RA,0.00,VWS V14.01,2013-03-09 12:54:00,
2013-03-09 06:59:00,66.0,62.3,29.93,SSE,157,6.0,7.0,88,0.00,,-RA,0.00,VWS V14.01,2013-03-09 12:59:00,
2013-03-09 07:04:00,66.1,62.1,29.93,SE,145,0.0,4.0,87,0.00,,-RA,0.00,VWS V14.01,2013-03-09 13:04:00,
2013-03-09 07:09:00,66.1,62.1,29.93,SSE,153,11.0,12.0,87,0.00,,-RA,0.00,VWS V14.01,2013-03-09 13:09:00,
2013-03-09 07:14:00,66.0,62.0,29.93,SE,146,4.0,5.0,87,0.00,,-RA,0.00,VWS V14.01,2013-03-09 13:14:00,
2013-03-09 07:19:00,66.0,62.0,29.93,SE,143,0.0,5.0,87,0.00,,-RA,0.00,VWS V14.01,2013-03-09 13:19:00,
2013-03-09 07:24:00,65.8,62.2,29.93,SE,142,2.0,7.0,88,0.00,,-RA,0.00,VWS V14.01,2013-03-09 13:24:00,
2013-03-09 07:29:00,65.6,62.0,29.93,SE,130,0.0,7.0,88,0.00,,-RA,0.00,VWS V14.01,2013-03-09 13:29:00,
2013-03-09 07:34:00,65.5,62.2,29.93,SE,130,4.0,5.0,89,0.00,,-RA,0.00,VWS V14.01,2013-03-09 13:34:00,
2013-03-09 07:39:00,65.3,62.0,29.93,SSE,158,0.0,7.0,89,0.00,,-RA,0.00,VWS V14.01,2013-03-09 13:39:00,
2013-03-09 07:44:00,65.3,62.3,29.93,SSE,163,0.0,7.0,90,0.00,,-RA,0.00,VWS V14.01,2013-03-09 13:44:00,
2013-03-09 07:49:00,65.2,62.2,29.94,SSE,158,0.0,7.0,90,0.00,,-RA,0.00,VWS V14.01,2013-03-09 13:49:00,
2013-03-09 07:54:00,65.2,62.5,29.94,SE,125,0.0,0.0,91,0.00,,-RA,0.00,VWS V14.01,2013-03-09 13:54:00,
2013-03-09 07:59:00,65.0,62.3,29.94,SE,138,4.0,5.0,91,0.00,,-RA,0.00,VWS V14.01,2013-03-09 13:59:00,
2013-03-09 08:04:00,65.0,62.3,29.94,ESE,113,0.0,6.0,91,0.00,,-RA,0.00,VWS V14.01,2013-03-09 14:04:00,
2013-03-09 08:09:00,65.0,62.6,29.94,SE,126,0.0,6.0,92,0.00,,-RA,0.00,VWS V14.01,2013-03-09 14:09:00,
2013-03-09 08:14:00,64.8,62.4,29.94,SE,137,0.0,12.0,92,0.00,,-RA,0.00,VWS V14.01,2013-03-09 14:14:00,
2013-03-09 08:19:00,64.8,62.4,29.94,East,92,2.0,12.0,92,0.00,,-RA,0.00,VWS V14.01,2013-03-09 14:19:00,
2013-03-09 08:24:00,64.8,62.4,29.94,SSE,165,5.0,6.0,92,0.00,,-RA,0.00,VWS V14.01,2013-03-09 14:24:00,
2013-03-09 08:29:00,64.8,62.4,29.94,ESE,114,0.0,6.0,92,0.00,,-RA,0.00,VWS V14.01,2013-03-09 14:29:00,
2013-03-09 08:34:00,64.8,62.4,29.94,South,170,0.0,7.0,92,0.00,,-RA,0.00,VWS V14.01,2013-03-09 14:34:00,
2013-03-09 08:39:00,64.7,62.3,29.94,ESE,104,4.0,9.0,92,0.00,,-RA,0.00,VWS V14.01,2013-03-09 14:39:00,
2013-03-09 08:44:00,64.7,62.3,29.94,ESE,123,3.0,5.0,92,0.00,,-RA,0.00,VWS V14.01,2013-03-09 14:44:00,
2013-03-09 08:49:00,64.7,62.3,29.94,SSE,152,4.0,14.0,92,0.00,,-RA,0.00,VWS V14.01,2013-03-09 14:49:00,
2013-03-09 08:54:00,64.7,62.6,29.94,SSE,165,5.0,10.0,93,0.00,,-RA,0.00,VWS V14.01,2013-03-09 14:54:00,
2013-03-09 08:59:00,64.7,62.6,29.94,SE,126,5.0,12.0,93,0.00,,,0.00,VWS V14.01,2013-03-09 14:59:00,
2013-03-09 09:04:00,64.7,62.6,29.94,SE,142,0.0,10.0,93,0.01,,,0.01,VWS V14.01,2013-03-09 15:04:00,
2013-03-09 09:09:00,64.8,62.7,29.94,ESE,108,0.0,10.0,93,0.01,,,0.01,VWS V14.01,2013-03-09 15:09:00,
2013-03-09 09:14:00,64.8,62.7,29.94,SE,140,2.0,10.0,93,0.01,,,0.01,VWS V14.01,2013-03-09 15:14:00,
2013-03-09 09:19:00,64.8,62.7,29.94,ESE,117,0.0,11.0,93,0.01,,,0.01,VWS V14.01,2013-03-09 15:19:00,
2013-03-09 09:24:00,65.0,62.9,29.94,ESE,108,2.0,5.0,93,0.01,,,0.01,VWS V14.01,2013-03-09 15:24:00,
2013-03-09 09:29:00,65.0,62.9,29.94,ESE,107,0.0,5.0,93,0.01,,,0.01,VWS V14.01,2013-03-09 15:29:00,
2013-03-09 09:34:00,65.0,63.2,29.93,SE,136,0.0,5.0,94,0.01,,,0.01,VWS V14.01,2013-03-09 15:34:00,
2013-03-09 09:39:00,65.2,63.4,29.93,South,178,7.0,7.0,94,0.01,,,0.01,VWS V14.01,2013-03-09 15:39:00,
2013-03-09 09:44:00,65.2,63.4,29.93,SSE,163,5.0,8.0,94,0.01,,,0.01,VWS V14.01,2013-03-09 15:44:00,
2013-03-09 09:49:00,65.3,63.5,29.93,ESE,109,3.0,9.0,94,0.01,,,0.01,VWS V14.01,2013-03-09 15:49:00,
2013-03-09 09:54:00,65.3,63.5,29.93,ESE,109,4.0,8.0,94,0.01,,,0.01,VWS V14.01,2013-03-09 15:54:00,
2013-03-09 09:59:00,65.5,63.7,29.93,ESE,110,17.0,17.0,94,0.01,,,0.01,VWS V14.01,2013-03-09 15:59:00,
2013-03-09 10:04:00,65.6,63.8,29.92,ESE,107,0.0,6.0,94,0.00,,,0.01,VWS V14.01,2013-03-09 16:04:00,
2013-03-09 10:09:00,65.8,64.0,29.92,South,175,5.0,14.0,94,0.00,,,0.01,VWS V14.01,2013-03-09 16:09:00,
2013-03-09 10:14:00,65.8,63.7,29.92,South,171,5.0,12.0,93,0.00,,,0.01,VWS V14.01,2013-03-09 16:14:00,
2013-03-09 10:19:00,66.0,63.9,29.91,South,182,0.0,12.0,93,0.00,,,0.01,VWS V14.01,2013-03-09 16:19:00,
2013-03-09 10:24:00,66.1,64.0,29.91,SSE,163,5.0,13.0,93,0.00,,,0.01,VWS V14.01,2013-03-09 16:24:00,
2013-03-09 10:29:00,66.3,64.2,29.91,South,180,9.0,13.0,93,0.00,,,0.01,VWS V14.01,2013-03-09 16:29:00,
2013-03-09 10:34:00,66.4,64.3,29.90,SSW,207,6.0,12.0,93,0.00,,,0.01,VWS V14.01,2013-03-09 16:34:00,
2013-03-09 10:39:00,66.8,64.4,29.90,SE,143,5.0,15.0,92,0.00,,,0.01,VWS V14.01,2013-03-09 16:39:00,
2013-03-09 10:44:00,66.9,64.5,29.90,SSE,159,4.0,7.0,92,0.00,,,0.01,VWS V14.01,2013-03-09 16:44:00,
2013-03-09 10:49:00,67.3,64.9,29.89,SSE,159,2.0,10.0,92,0.00,,,0.01,VWS V14.01,2013-03-09 16:49:00,
2013-03-09 10:54:00,67.4,64.7,29.89,SSE,165,1.0,12.0,91,0.00,,,0.01,VWS V14.01,2013-03-09 16:54:00,
2013-03-09 10:59:00,67.6,64.9,29.89,SSE,158,3.0,13.0,91,0.00,,,0.01,VWS V14.01,2013-03-09 16:59:00,
2013-03-09 11:04:00,67.8,64.8,29.89,South,179,6.0,16.0,90,0.00,,,0.01,VWS V14.01,2013-03-09 17:04:00,
2013-03-09 11:09:00,67.9,64.5,29.89,SSE,163,7.0,16.0,89,0.00,,OVC010,0.01,VWS V14.01,2013-03-09 17:09:00,
2013-03-09 11:14:00,68.1,64.7,29.89,SE,126,5.0,13.0,89,0.00,,OVC010,0.01,VWS V14.01,2013-03-09 17:14:00,
2013-03-09 11:19:00,68.3,64.6,29.88,SSE,150,3.0,13.0,88,0.00,,OVC010,0.01,VWS V14.01,2013-03-09 17:19:00,
2013-03-09 11:24:00,68.4,64.7,29.88,SSE,155,12.0,14.0,88,0.00,,OVC010,0.01,VWS V14.01,2013-03-09 17:24:00,
2013-03-09 11:29:00,68.6,64.6,29.88,SSE,158,2.0,15.0,87,0.00,,OVC010,0.01,VWS V14.01,2013-03-09 17:29:00,
2013-03-09 11:34:00,68.8,64.8,29.88,SSE,149,6.0,9.0,87,0.00,,OVC010,0.01,VWS V14.01,2013-03-09 17:34:00,
2013-03-09 11:39:00,68.9,64.9,29.88,East,96,2.0,12.0,87,0.00,,OVC010,0.01,VWS V14.01,2013-03-09 17:39:00,
2013-03-09 11:44:00,69.1,64.7,29.88,SSE,148,2.0,13.0,86,0.00,,OVC010,0.01,VWS V14.01,2013-03-09 17:44:00,
2013-03-09 11:49:00,69.3,64.6,29.87,SSE,159,1.0,13.0,85,0.00,,,0.01,VWS V14.01,2013-03-09 17:49:00,
2013-03-09 11:54:00,69.4,64.7,29.87,SSE,168,9.0,16.0,85,0.00,,,0.01,VWS V14.01,2013-03-09 17:54:00,
2013-03-09 11:59:00,69.8,64.1,29.87,South,171,8.0,16.0,82,0.00,,,0.01,VWS V14.01,2013-03-09 17:59:00,
2013-03-09 12:04:00,69.9,64.5,29.86,SE,135,1.0,6.0,83,0.00,,,0.01,VWS V14.01,2013-03-09 18:04:00,
2013-03-09 12:09:00,70.1,64.7,29.86,SE,144,3.0,12.0,83,0.00,,,0.01,VWS V14.01,2013-03-09 18:09:00,
2013-03-09 12:14:00,70.3,64.6,29.86,ESE,121,2.0,9.0,82,0.00,,,0.01,VWS V14.01,2013-03-09 18:14:00,
2013-03-09 12:19:00,70.4,64.7,29.86,South,179,4.0,11.0,82,0.00,,,0.01,VWS V14.01,2013-03-09 18:19:00,
2013-03-09 12:24:00,70.6,64.5,29.86,South,174,5.0,5.0,81,0.00,,,0.01,VWS V14.01,2013-03-09 18:24:00,
2013-03-09 12:29:00,70.8,64.7,29.86,ESE,112,7.0,10.0,81,0.00,,,0.01,VWS V14.01,2013-03-09 18:29:00,
2013-03-09 12:34:00,70.8,64.3,29.85,SSW,200,5.0,6.0,80,0.00,,,0.01,VWS V14.01,2013-03-09 18:34:00,
2013-03-09 12:39:00,70.8,64.3,29.85,South,186,5.0,11.0,80,0.00,,,0.01,VWS V14.01,2013-03-09 18:39:00,
2013-03-09 12:44:00,70.9,64.4,29.85,East,89,3.0,9.0,80,0.00,,,0.01,VWS V14.01,2013-03-09 18:44:00,
2013-03-09 12:49:00,70.9,64.1,29.84,SSE,153,4.0,12.0,79,0.00,,,0.01,VWS V14.01,2013-03-09 18:49:00,
2013-03-09 12:54:00,71.1,64.3,29.84,SSE,148,3.0,12.0,79,0.00,,OVC033,0.01,VWS V14.01,2013-03-09 18:54:00,
2013-03-09 12:59:00,71.3,64.5,29.84,SSE,164,1.0,13.0,79,0.00,,OVC033,0.01,VWS V14.01,2013-03-09 18:59:00,
2013-03-09 13:04:00,71.5,64.3,29.83,ENE,65,0.0,6.0,78,0.00,,OVC033,0.01,VWS V14.01,2013-03-09 19:04:00,
2013-03-09 13:09:00,71.6,64.4,29.83,SE,129,0.0,6.0,78,0.00,,OVC033,0.01,VWS V14.01,2013-03-09 19:09:00,
2013-03-09 13:14:00,71.6,64.4,29.83,SSE,149,4.0,9.0,78,0.00,,OVC033,0.01,VWS V14.01,2013-03-09 19:14:00,
2013-03-09 13:19:00,71.8,64.2,29.81,South,184,7.0,15.0,77,0.00,,OVC033,0.01,VWS V14.01,2013-03-09 19:19:00,
2013-03-09 13:24:00,72.1,64.5,29.81,SSE,160,5.0,5.0,77,0.00,,OVC033,0.01,VWS V14.01,2013-03-09 19:24:00,
2013-03-09 13:29:00,72.5,64.5,29.81,SSE,167,3.0,11.0,76,0.00,,OVC033,0.01,VWS V14.01,2013-03-09 19:29:00,
2013-03-09 13:34:00,72.8,64.4,29.81,SE,136,1.0,10.0,75,0.00,,OVC033,0.01,VWS V14.01,2013-03-09 19:34:00,
2013-03-09 13:39:00,72.8,64.0,29.81,SE,129,13.0,16.0,74,0.00,,OVC033,0.01,VWS V14.01,2013-03-09 19:39:00,
2013-03-09 13:44:00,72.8,64.0,29.81,South,169,7.0,11.0,74,0.00,,OVC033,0.01,VWS V14.01,2013-03-09 19:44:00,
2013-03-09 13:49:00,72.8,64.0,29.79,South,169,4.0,14.0,74,0.00,,OVC033,0.01,VWS V14.01,2013-03-09 19:49:00,
2013-03-09 13:54:00,72.8,64.0,29.79,South,170,11.0,11.0,74,0.00,,OVC033,0.01,VWS V14.01,2013-03-09 19:54:00,
2013-03-09 13:59:00,73.0,64.2,29.79,SSE,167,4.0,11.0,74,0.00,,OVC033,0.01,VWS V14.01,2013-03-09 19:59:00,
2013-03-09 14:04:00,73.2,64.4,29.79,SSE,164,12.0,16.0,74,0.00,,OVC033,0.01,VWS V14.01,2013-03-09 20:04:00,
2013-03-09 14:09:00,73.3,64.1,29.79,SSE,155,7.0,16.0,73,0.00,,OVC035,0.01,VWS V14.01,2013-03-09 20:09:00,
2013-03-09 14:14:00,73.5,63.9,29.79,South,187,11.0,13.0,72,0.00,,OVC035,0.01,VWS V14.01,2013-03-09 20:14:00,
2013-03-09 14:19:00,73.7,63.7,29.78,SSE,165,8.0,13.0,71,0.00,,OVC035,0.01,VWS V14.01,2013-03-09 20:19:00,
2013-03-09 14:24:00,73.9,63.9,29.78,SE,126,13.0,20.0,71,0.00,,OVC035,0.01,VWS V14.01,2013-03-09 20:24:00,
2013-03-09 14:29:00,73.7,63.7,29.78,East,90,17.0,20.0,71,0.00,,OVC035,0.01,VWS V14.01,2013-03-09 20:29:00,
2013-03-09 14:34:00,73.7,63.7,29.78,ENE,60,5.0,10.0,71,0.00,,OVC035,0.01,VWS V14.01,2013-03-09 20:34:00,
2013-03-09 14:39:00,74.0,64.0,29.78,SSE,154,4.0,17.0,71,0.00,,OVC035,0.01,VWS V14.01,2013-03-09 20:39:00,
2013-03-09 14:44:00,74.6,64.2,29.78,SSW,209,4.0,16.0,70,0.00,,OVC035,0.01,VWS V14.01,2013-03-09 20:44:00,
2013-03-09 14:49:00,74.6,64.2,29.77,South,187,11.0,16.0,70,0.00,,OVC035,0.01,VWS V14.01,2013-03-09 20:49:00,
2013-03-09 14:54:00,74.6,64.2,29.77,South,184,4.0,10.0,70,0.00,,OVC035,0.01,VWS V14.01,2013-03-09 20:54:00,
2013-03-09 14:59:00,74.7,63.9,29.77,SSE,158,4.0,14.0,69,0.00,,OVC043,0.01,VWS V14.01,2013-03-09 20:59:00,
2013-03-09 15:04:00,75.1,64.2,29.76,South,190,4.0,8.0,69,0.00,,OVC043,0.01,VWS V14.01,2013-03-09 21:04:00,
2013-03-09 15:09:00,75.3,64.0,29.76,SE,144,10.0,15.0,68,0.00,,OVC043,0.01,VWS V14.01,2013-03-09 21:09:00,
2013-03-09 15:14:00,75.1,63.8,29.76,SE,134,4.0,12.0,68,0.00,,OVC039,0.01,VWS V14.01,2013-03-09 21:14:00,
2013-03-09 15:19:00,74.9,63.6,29.74,SE,143,10.0,18.0,68,0.00,,OVC039,0.01,VWS V14.01,2013-03-09 21:19:00,
2013-03-09 15:24:00,74.9,63.6,29.74,SSE,148,10.0,20.0,68,0.00,,OVC039,0.01,VWS V14.01,2013-03-09 21:24:00,
2013-03-09 15:29:00,75.3,63.6,29.74,South,184,12.0,21.0,67,0.00,,OVC039,0.01,VWS V14.01,2013-03-09 21:29:00,
2013-03-09 15:34:00,75.3,63.6,29.74,SE,142,8.0,18.0,67,0.00,,OVC039,0.01,VWS V14.01,2013-03-09 21:34:00,
2013-03-09 15:39:00,75.3,63.6,29.74,SE,128,10.0,18.0,67,0.00,,OVC047,0.01,VWS V14.01,2013-03-09 21:39:00,
2013-03-09 15:44:00,75.3,64.0,29.74,SSE,163,12.0,15.0,68,0.00,,OVC047,0.01,VWS V14.01,2013-03-09 21:44:00,
2013-03-09 15:49:00,75.3,64.0,29.73,ESE,123,5.0,18.0,68,0.00,,OVC047,0.01,VWS V14.01,2013-03-09 21:49:00,
2013-03-09 15:54:00,75.1,63.8,29.73,SSE,159,10.0,18.0,68,0.00,,OVC047,0.01,VWS V14.01,2013-03-09 21:54:00,
2013-03-09 15:59:00,74.6,63.8,29.73,SSE,164,6.0,19.0,69,0.00,,OVC047,0.01,VWS V14.01,2013-03-09 21:59:00,
2013-03-09 16:04:00,74.6,64.2,29.73,South,173,4.0,13.0,70,0.00,,OVC047,0.01,VWS V14.01,2013-03-09 22:04:00,
2013-03-09 16:09:00,74.6,64.2,29.73,ESE,118,14.0,20.0,70,0.00,,OVC047,0.01,VWS V14.01,2013-03-09 22:09:00,
2013-03-09 16:14:00,74.2,63.8,29.73,SE,142,6.0,14.0,70,0.00,,OVC047,0.01,VWS V14.01,2013-03-09 22:14:00,
2013-03-09 16:19:00,73.9,63.5,29.73,South,188,11.0,21.0,70,0.00,,OVC047,0.01,VWS V14.01,2013-03-09 22:19:00,
2013-03-09 16:24:00,73.5,63.5,29.73,ESE,110,18.0,27.0,71,0.00,,OVC047,0.01,VWS V14.01,2013-03-09 22:24:00,
2013-03-09 16:29:00,73.0,63.8,29.73,SSE,164,3.0,27.0,73,0.00,,OVC037,0.01,VWS V14.01,2013-03-09 22:29:00,
2013-03-09 16:34:00,72.8,63.7,29.73,South,174,11.0,16.0,73,0.00,,OVC037,0.01,VWS V14.01,2013-03-09 22:34:00,
2013-03-09 16:39:00,72.7,63.9,29.73,ESE,115,9.0,17.0,74,0.00,,OVC037,0.01,VWS V14.01,2013-03-09 22:39:00,
2013-03-09 16:44:00,72.5,63.8,29.73,SE,145,3.0,19.0,74,0.00,,OVC037,0.01,VWS V14.01,2013-03-09 22:44:00,
2013-03-09 16:49:00,72.5,63.8,29.74,SSE,168,10.0,19.0,74,0.00,,OVC037,0.01,VWS V14.01,2013-03-09 22:49:00,
2013-03-09 16:54:00,72.3,63.6,29.74,South,177,3.0,6.0,74,0.00,,OVC037,0.01,VWS V14.01,2013-03-09 22:54:00,
2013-03-09 16:59:00,72.1,63.8,29.74,South,188,4.0,11.0,75,0.00,,OVC030,0.01,VWS V14.01,2013-03-09 22:59:00,
2013-03-09 17:04:00,72.0,63.7,29.74,South,174,6.0,11.0,75,0.00,,OVC030,0.01,VWS V14.01,2013-03-09 23:04:00,
2013-03-09 17:09:00,71.8,63.8,29.74,SSE,161,3.0,15.0,76,0.00,,OVC030,0.01,VWS V14.01,2013-03-09 23:09:00,
2013-03-09 17:14:00,71.6,63.6,29.74,South,182,5.0,14.0,76,0.00,,OVC030,0.01,VWS V14.01,2013-03-09 23:14:00,
2013-03-09 17:19:00,71.5,63.9,29.75,ESE,107,2.0,14.0,77,0.00,,OVC030,0.01,VWS V14.01,2013-03-09 23:19:00,
2013-03-09 17:24:00,71.3,63.7,29.75,SSE,168,4.0,8.0,77,0.00,,OVC030,0.01,VWS V14.01,2013-03-09 23:24:00,
2013-03-09 17:29:00,71.3,63.7,29.75,SE,141,1.0,15.0,77,0.00,,OVC030,0.01,VWS V14.01,2013-03-09 23:29:00,
2013-03-09 17:34:00,71.1,63.5,29.75,SSE,156,6.0,15.0,77,0.00,,OVC030,0.01,VWS V14.01,2013-03-09 23:34:00,
2013-03-09 17:39:00,71.1,63.9,29.75,SSE,155,3.0,15.0,78,0.00,,OVC030,0.01,VWS V14.01,2013-03-09 23:39:00,
2013-03-09 17:44:00,70.9,63.7,29.75,SSE,155,2.0,6.0,78,0.00,,OVC030,0.01,VWS V14.01,2013-03-09 23:44:00,
2013-03-09 17:49:00,70.9,63.7,29.75,ESE,103,9.0,15.0,78,0.00,,OVC030,0.01,VWS V14.01,2013-03-09 23:49:00,
2013-03-09 17:54:00,70.9,63.7,29.75,SSE,164,3.0,12.0,78,0.00,,OVC030,0.01,VWS V14.01,2013-03-09 23:54:00,
2013-03-09 17:59:00,70.9,63.7,29.75,South,170,1.0,16.0,78,0.00,,OVC021,0.01,VWS V14.01,2013-03-09 23:59:00,
2013-03-09 18:04:00,70.8,63.6,29.75,South,171,5.0,9.0,78,0.00,,OVC021,0.01,VWS V14.01,2013-03-10 00:04:00,
2013-03-09 18:09:00,70.8,63.6,29.75,SSE,148,5.0,15.0,78,0.00,,OVC021,0.01,VWS V14.01,2013-03-10 00:09:00,
2013-03-09 18:14:00,70.8,63.6,29.75,SSE,150,5.0,16.0,78,0.00,,OVC021,0.01,VWS V14.01,2013-03-10 00:14:00,
2013-03-09 18:19:00,70.8,63.6,29.75,SSW,194,5.0,16.0,78,0.00,,OVC021,0.01,VWS V14.01,2013-03-10 00:19:00,
2013-03-09 18:24:00,70.8,63.6,29.75,SSE,159,5.0,15.0,78,0.00,,OVC021,0.01,VWS V14.01,2013-03-10 00:24:00,
2013-03-09 18:29:00,70.6,63.4,29.75,East,84,4.0,16.0,78,0.00,,OVC021,0.01,VWS V14.01,2013-03-10 00:29:00,
2013-03-09 18:34:00,70.6,63.4,29.75,South,172,2.0,7.0,78,0.00,,OVC021,0.01,VWS V14.01,2013-03-10 00:34:00,
2013-03-09 18:39:00,70.6,63.8,29.75,SE,138,0.0,12.0,79,0.00,,OVC021,0.01,VWS V14.01,2013-03-10 00:39:00,
2013-03-09 18:44:00,70.4,63.6,29.75,SE,144,5.0,15.0,79,0.00,,OVC021,0.01,VWS V14.01,2013-03-10 00:44:00,
2013-03-09 18:49:00,70.4,63.6,29.75,SE,139,10.0,15.0,79,0.00,,OVC021,0.01,VWS V14.01,2013-03-10 00:49:00,
2013-03-09 18:54:00,70.4,63.6,29.75,SE,130,19.0,19.0,79,0.00,,OVC021,0.01,VWS V14.01,2013-03-10 00:54:00,
2013-03-09 18:59:00,70.3,63.5,29.75,SSE,160,5.0,19.0,79,0.00,,OVC017,0.01,VWS V14.01,2013-03-10 00:59:00,
2013-03-09 19:04:00,70.3,63.5,29.75,ESE,116,6.0,13.0,79,0.00,,OVC017,0.01,VWS V14.01,2013-03-10 01:04:00,
2013-03-09 19:09:00,70.3,63.5,29.75,South,173,6.0,15.0,79,0.00,,OVC017,0.01,VWS V14.01,2013-03-10 01:09:00,
2013-03-09 19:14:00,70.3,63.5,29.75,South,182,11.0,15.0,79,0.00,,OVC017,0.01,VWS V14.01,2013-03-10 01:14:00,
2013-03-09 19:19:00,70.1,63.3,29.75,ESE,110,13.0,15.0,79,0.00,,OVC017,0.01,VWS V14.01,2013-03-10 01:19:00,
2013-03-09 19:24:00,70.1,63.3,29.75,East,97,21.0,21.0,79,0.00,,OVC017,0.01,VWS V14.01,2013-03-10 01:24:00,
2013-03-09 19:29:00,70.1,63.3,29.75,South,178,5.0,21.0,79,0.00,,OVC017,0.01,VWS V14.01,2013-03-10 01:29:00,
2013-03-09 19:34:00,69.9,63.1,29.73,ESE,123,4.0,16.0,79,0.00,,OVC017,0.01,VWS V14.01,2013-03-10 01:34:00,
2013-03-09 19:39:00,69.9,63.1,29.73,ESE,121,9.0,17.0,79,0.00,,OVC017,0.01,VWS V14.01,2013-03-10 01:39:00,
2013-03-09 19:44:00,69.8,63.0,29.73,SSE,150,12.0,14.0,79,0.00,,OVC017,0.01,VWS V14.01,2013-03-10 01:44:00,
2013-03-09 19:49:00,69.8,63.0,29.73,ESE,123,2.0,20.0,79,0.00,,OVC017,0.01,VWS V14.01,2013-03-10 01:49:00,
2013-03-09 19:54:00,69.8,63.0,29.73,SE,128,14.0,15.0,79,0.00,,OVC017,0.01,VWS V14.01,2013-03-10 01:54:00,
2013-03-09 19:59:00,69.8,63.0,29.73,ESE,115,14.0,21.0,79,0.00,,OVC017,0.01,VWS V14.01,2013-03-10 01:59:00,
2013-03-09 20:04:00,69.6,62.8,29.72,South,170,13.0,18.0,79,0.00,,OVC017,0.01,VWS V14.01,2013-03-10 02:04:00,
2013-03-09 20:09:00,69.6,62.8,29.72,SE,143,9.0,18.0,79,0.00,,OVC017,0.01,VWS V14.01,2013-03-10 02:09:00,
2013-03-09 20:14:00,69.6,63.2,29.72,South,189,6.0,9.0,80,0.00,,OVC017,0.01,VWS V14.01,2013-03-10 02:14:00,
2013-03-09 20:19:00,69.4,63.0,29.72,South,186,12.0,14.0,80,0.00,,OVC017,0.01,VWS V14.01,2013-03-10 02:19:00,
2013-03-09 20:24:00,69.4,63.0,29.72,SSE,150,5.0,12.0,80,0.00,,OVC017,0.01,VWS V14.01,2013-03-10 02:24:00,
2013-03-09 20:29:00,69.4,63.0,29.72,SE,133,3.0,17.0,80,0.00,,OVC017,0.01,VWS V14.01,2013-03-10 02:29:00,
2013-03-09 20:34:00,69.3,62.9,29.72,ESE,107,17.0,17.0,80,0.00,,OVC017,0.01,VWS V14.01,2013-03-10 02:34:00,
2013-03-09 20:39:00,69.3,62.9,29.72,SSW,196,10.0,21.0,80,0.00,,OVC017,0.01,VWS V14.01,2013-03-10 02:39:00,
2013-03-09 20:43:00,69.3,62.9,29.72,South,178,13.0,15.0,80,0.00,,OVC017,0.01,VWS V14.01,2013-03-10 02:43:00,
2013-03-09 20:49:00,69.3,62.9,29.71,SSW,205,6.0,23.0,80,0.00,,OVC017,0.01,VWS V14.01,2013-03-10 02:49:00,
2013-03-09 20:54:00,69.1,62.7,29.71,SE,126,18.0,19.0,80,0.00,,OVC017,0.01,VWS V14.01,2013-03-10 02:54:00,
2013-03-09 20:59:00,69.1,63.0,29.71,SSW,199,7.0,19.0,81,0.00,,OVC017,0.01,VWS V14.01,2013-03-10 02:59:00,
2013-03-09 21:03:00,69.1,63.0,29.70,SSE,149,9.0,21.0,81,0.00,,OVC015,0.01,VWS V14.01,2013-03-10 03:03:00,
2013-03-09 21:08:00,69.1,63.0,29.70,SE,130,1.0,21.0,81,0.00,,OVC015,0.01,VWS V14.01,2013-03-10 03:08:00,
2013-03-09 21:14:00,69.1,63.0,29.70,SE,141,10.0,14.0,81,0.00,,OVC015,0.01,VWS V14.01,2013-03-10 03:14:00,
2013-03-09 21:19:00,69.1,63.0,29.69,ESE,120,12.0,17.0,81,0.00,,OVC015,0.01,VWS V14.01,2013-03-10 03:19:00,
2013-03-09 21:24:00,69.1,63.0,29.69,SE,134,3.0,12.0,81,0.00,,OVC015,0.01,VWS V14.01,2013-03-10 03:24:00,
2013-03-09 21:29:00,69.1,62.7,29.69,South,191,22.0,22.0,80,0.00,,OVC015,0.01,VWS V14.01,2013-03-10 03:29:00,
2013-03-09 21:34:00,69.1,62.7,29.68,South,180,14.0,19.0,80,0.00,,OVC015,0.01,VWS V14.01,2013-03-10 03:34:00,
2013-03-09 21:38:00,69.1,62.7,29.68,ESE,112,6.0,21.0,80,0.00,,OVC015,0.01,VWS V14.01,2013-03-10 03:38:00,
2013-03-09 21:44:00,68.9,62.5,29.68,South,171,5.0,14.0,80,0.00,,OVC015,0.01,VWS V14.01,2013-03-10 03:44:00,
2013-03-09 21:48:00,68.9,62.5,29.67,SSE,157,5.0,14.0,80,0.00,,OVC015,0.01,VWS V14.01,2013-03-10 03:48:00,
2013-03-09 21:53:00,68.9,62.8,29.67,SE,131,2.0,9.0,81,0.00,,OVC015,0.01,VWS V14.01,2013-03-10 03:53:00,
2013-03-09 21:58:00,68.9,62.8,29.67,ESE,104,1.0,19.0,81,0.00,,OVC015,0.01,VWS V14.01,2013-03-10 03:58:00,
2013-03-09 22:03:00,68.9,64.2,29.68,SSW,194,1.0,11.0,85,0.00,,OVC015,0.01,VWS V14.01,2013-03-10 04:03:00,
2013-03-09 22:08:00,68.9,62.8,29.68,SE,139,1.0,15.0,81,0.00,,OVC015,0.01,VWS V14.01,2013-03-10 04:08:00,
2013-03-09 22:13:00,68.9,62.8,29.68,SE,130,6.0,13.0,81,0.00,,OVC015,0.01,VWS V14.01,2013-03-10 04:13:00,
2013-03-09 22:18:00,68.9,62.8,29.68,ESE,107,4.0,13.0,81,0.00,,OVC015,0.01,VWS V14.01,2013-03-10 04:18:00,
2013-03-09 22:23:00,68.9,62.8,29.68,South,180,11.0,16.0,81,0.00,,OVC015,0.01,VWS V14.01,2013-03-10 04:23:00,
2013-03-09 22:28:00,68.9,62.8,29.68,ESE,103,5.0,16.0,81,0.00,,OVC015,0.01,VWS V14.01,2013-03-10 04:28:00,
2013-03-09 22:33:00,68.9,62.8,29.71,SE,142,3.0,11.0,81,0.00,,OVC015,0.01,VWS V14.01,2013-03-10 04:33:00,
2013-03-09 22:38:00,68.9,62.8,29.71,ESE,109,1.0,17.0,81,0.00,,OVC015,0.01,VWS V14.01,2013-03-10 04:38:00,
2013-03-09 22:43:00,68.9,62.8,29.71,SE,137,9.0,13.0,81,0.00,,OVC015,0.01,VWS V14.01,2013-03-10 04:43:00,
2013-03-09 22:48:00,68.8,62.7,29.72,SE,134,5.0,13.0,81,0.00,,OVC015,0.01,VWS V14.01,2013-03-10 04:48:00,
2013-03-09 22:53:00,68.8,62.7,29.72,SSE,148,0.0,5.0,81,0.00,,OVC015,0.01,VWS V14.01,2013-03-10 04:53:00,
2013-03-09 22:58:00,68.9,62.8,29.72,SE,136,2.0,13.0,81,0.00,,OVC017,0.01,VWS V14.01,2013-03-10 04:58:00,
2013-03-09 23:00:00,68.9,62.8,29.72,ESE,111,3.0,13.0,81,0.00,,OVC017,0.01,VWS V14.01,2013-03-10 05:00:00,
2013-03-09 23:05:00,68.9,62.8,29.72,SSE,149,0.0,4.0,81,0.00,,OVC017,0.01,VWS V14.01,2013-03-10 05:05:00,
2013-03-09 23:10:00,68.8,62.7,29.72,South,173,6.0,13.0,81,0.00,,OVC017,0.01,VWS V14.01,2013-03-10 05:10:00,
2013-03-09 23:15:00,68.8,62.7,29.72,SSE,155,0.0,6.0,81,0.00,,OVC017,0.01,VWS V14.01,2013-03-10 05:15:00,
2013-03-09 23:20:00,68.8,62.7,29.74,SE,127,0.0,6.0,81,0.00,,OVC017,0.01,VWS V14.01,2013-03-10 05:20:00,
2013-03-09 23:25:00,68.8,62.7,29.74,SSE,168,11.0,11.0,81,0.00,,OVC017,0.01,VWS V14.01,2013-03-10 05:25:00,
2013-03-09 23:30:00,68.9,62.8,29.74,ESE,120,3.0,15.0,81,0.00,,OVC017,0.01,VWS V14.01,2013-03-10 05:30:00,
2013-03-09 23:35:00,68.9,62.8,29.73,SSE,152,3.0,12.0,81,0.00,,OVC017,0.01,VWS V14.01,2013-03-10 05:35:00,
2013-03-09 23:40:00,68.9,62.8,29.73,SSW,193,0.0,17.0,81,0.00,,OVC017,0.01,VWS V14.01,2013-03-10 05:40:00,
2013-03-09 23:45:00,69.1,62.7,29.73,South,187,17.0,17.0,80,0.00,,OVC017,0.01,VWS V14.01,2013-03-10 05:45:00,
2013-03-09 23:50:00,69.3,62.9,29.74,SE,128,7.0,20.0,80,0.00,,OVC017,0.01,VWS V14.01,2013-03-10 05:50:00,
2013-03-09 23:55:00,69.1,62.7,29.74,SSW,192,7.0,9.0,80,0.00,,OVC017,0.01,VWS V14.01,2013-03-10 05:55:00,